Regional Weather Roundup
Issued by NWS

Home | Current Version | Previous Version | Text Only | Print | Product List | Glossary On
Versions: 1 2 3 4 5 6 7 8 9 10 11 12 13 14 15 16 17 18 19 20 21 22 23 24 25 26 27 28 29 30 31 32 33 34 35 36 37 38 39 40 41 42 43 44 45 46 47 48 49 50
000
ASUS42 KKEY 020010
RWRKEY

FLORIDA REGIONAL WEATHER ROUNDUP FOR THE FLORIDA KEYS
NATIONAL WEATHER SERVICE KEY WEST FLORIDA
800 PM EDT MON SEP 01 2014

...SOUTH FLORIDA AND THE KEYS...

CITY           SKY/WX    TMP DP  RH WIND       PRES   REMARKS
FORT MYERS     PTCLDY    79  71  76 SE3       30.04S
SW REGIONAL AP PTCLDY    79  70  74 N3        30.05S
NAPLES         CLOUDY    79  76  90 NE5       30.04R
MIAMI          PTCLDY    85  73  67 E12       30.04S HX  91
WEST KENDALL   CLEAR     83  74  74 E10       30.04S
HOMESTEAD      CLEAR     83  75  76 E6        30.04S HX  91
MARATHON       PTCLDY    85  75  72 E8        30.03R HX  93
BOCA CHICA NAS PTCLDY    85  74  69 E10       30.02R HX  92
KEY WEST INTL  CLEAR     86  74  67 E8        30.02S HX  94

...INTERNATIONAL WEATHER...

CITY           SKY/WX    TMP DP  RH WIND       PRES   REMARKS
NASSAU BAHAMAS NOT AVBL
CANCUN MEXICO  MOCLDY    84  77  79 SE6       29.93S HX  94
COZUMEL MEXICO MOCLDY    81  77  89 E8        29.93R

ADJACENT COASTAL WATERS...

STATION/POSITION TIME  SKY/WX   TEMP    WIND        PRES    WAVE
                                AIR SEA DIR/SP/G            HT/PER
                 (UTC)          (F)     (DEG/KT/KT) (MB)    (FT/S)
PULASKI SHOAL LI 0000            85      90/  9/ 10 1016.4R
SAND KEY         0000            85      90/ 11/ 13 1016.5R
SOMBRERO KEY     0000            85      90/ 13/ 14 1017.4R
LONG KEY         0000            85 87  100/ 11/ 12 1017.6R
MOLASSES REEF    0000            84 87  100/ 12/ 13 1016.8F
FOWEY ROCKS      0000            84 87   80/  9/  9 1017.4F
Buoy 42080       NOT AVBL

$$


USA.gov is the U.S. government's official web portal to all federal, state and local government web resources and services.